Location: Newark
(42.7133°N, 87.7910°W)
Time: 02:42:37
(UTC+00:00)

SR - Pass Details

Date: 27 October 2019
Orbit: 573 x 882 km, 66.7° (Epoch: 22 November)

Event Time Altitude Azimuth Distance (km) Brightness Sun altitude
Exits shadow 09:40:05 - 348° (NNW) 2,582 ? -29.6°
Reaches altitude 10° 09:40:15 10° 349° (N) 2,531 ? -29.6°
Maximum altitude 09:45:06 25° 44° (NE) 1,690 ? -28.7°
Drops below altitude 10° 09:49:56 10° 99° (E) 2,530 ? -27.8°
Sets 09:52:50 0° 112° (ESE) 3,445 ? -27.3°
